Back to catalog

STARLINK-31045

AliveCommunicationsVLEO
NORAD 58541·PAYLOAD·🇺🇸 United States

Launched Dec 8, 2023 from Vandenberg Space Force Base

Loading…

Next Passes (next 24 hours)

TLE

FreshSource: CelesTrak SupGP

Epoch: Sep 14, 2026, 22:16 UTC

1 58541C 23192L   26257.92826389 -.00005118  00000+0 -15127-3 0  2571
2 58541  53.1593 339.9591 0001099  87.1799 354.0934 15.34383410    11

Track STARLINK-31045 in real time with AllMySat

Download on the App Store